Davenport, IA

7:18 PM CDT on August 21, 2017 (GMT -0500)
Davenport Municipal

Weather History for KDVN - November, 2012

Change the Weather History Date:

Sunday, November 18, 2012

  Actual Average Record
Temperature  
Mean Temperature 46 °F 38 °F  
Max Temperature 60 °F 47 °F 73 °F (1999)
Min Temperature 31 °F 29 °F 6 °F (2014)
Degree Days  
Heating Degree Days 19 27  
Month to date heating degree days 419 416  
Since 1 July heating degree days 1079 976  
Cooling Degree Days 0 0  
Month to date cooling degree days 0 0  
Year to date cooling degree days 1114 786  
Moisture  
Dew Point 32 °F    
Average Humidity 63    
Maximum Humidity 92    
Minimum Humidity 33    
Precipitation  
Precipitation 0.00 in 0.06 in 1.17 in (1957)
Month to date precipitation 0.90 1.62  
Year to date precipitation 27.68 33.47  
Snow  
Snow 0.00 in - - ()
Month to date snowfall T  
Since 1 July snowfall T  
Since 1 September snowfall T  
Snow Depth 0.00 in    
Sea Level Pressure  
Sea Level Pressure 30.34 in    
Wind  
Wind Speed 10 mph (SSE)    
Max Wind Speed 15 mph    
Max Gust Speed 18 mph    
Visibility 8 miles    
Events      
T = Trace of Precipitation, MM = Missing Value Source: NWS Daily Summary

Daily Weather History Graph

Daily Weather History Graph

Search for Another Location

Airport or City:

Trip Planner

Search our weather history database for the weather conditions in past years. The results will help you decide how hot, cold, wet, or windy it might be!

Date:

Astronomy

Nov. 18, 2012 Rise Set
Actual Time 6:55 AM CST 4:39 PM CST
Civil Twilight 6:25 AM CST 5:09 PM CST
Nautical Twilight 5:51 AM CST 5:43 PM CST
Astronomical Twilight 5:18 AM CST 6:16 PM CST
Moon 11:21 AM CST (11/18) 10:00 PM CST (11/18)
Length of Visible Light 10h 44m
Length of Day
9h 43m
Waxing Crescent, 30% of the Moon is Illuminated
Nov 18
Waxing Crescent
Nov 20
First Quarter
Nov 28
Full
Dec 6
Last Quarter
Dec 13
New

Hourly Weather History & Observations

Time (CST) Temp. Windchill Dew Point Humidity Pressure Visibility Wind Dir Wind Speed Gust Speed Precip Events Conditions
12:52 AM 39.0 °F 33.4 °F 32.0 °F 76% 30.40 in 6.0 mi SSE 8.1 mph - N/A   Haze
1:52 AM 39.0 °F 32.8 °F 32.0 °F 76% 30.39 in 6.0 mi SSE 9.2 mph - N/A   Haze
2:52 AM 36.0 °F 30.3 °F 30.0 °F 79% 30.39 in 6.0 mi SSE 6.9 mph - N/A   Haze
3:52 AM 34.0 °F 28.0 °F 28.9 °F 82% 30.38 in 5.0 mi SSE 6.9 mph - N/A   Haze
4:52 AM 32.0 °F 24.8 °F 28.0 °F 85% 30.40 in 5.0 mi SE 8.1 mph - N/A   Clear
5:52 AM 30.9 °F 23.5 °F 28.0 °F 89% 30.39 in 4.0 mi SSE 8.1 mph - N/A   Clear
6:52 AM 32.0 °F 24.8 °F 28.0 °F 85% 30.37 in 4.0 mi SSE 8.1 mph - N/A   Clear
7:52 AM 36.0 °F 29.6 °F 30.9 °F 82% 30.38 in 4.0 mi SE 8.1 mph - N/A   Haze
8:52 AM 43.0 °F 36.4 °F 33.1 °F 68% 30.38 in 6.0 mi SSE 12.7 mph - N/A   Haze
9:52 AM 48.0 °F - 33.1 °F 56% 30.37 in 7.0 mi SSE 10.4 mph - N/A   Clear
10:52 AM 52.0 °F - 34.0 °F 50% 30.36 in 9.0 mi SSE 10.4 mph - N/A   Clear
11:52 AM 55.0 °F - 32.0 °F 42% 30.33 in 10.0 mi South 10.4 mph - N/A   Clear
12:52 PM 57.9 °F - 30.9 °F 36% 30.31 in 10.0 mi South 11.5 mph - N/A   Clear
1:52 PM 59.0 °F - 30.9 °F 35% 30.29 in 10.0 mi SE 11.5 mph - N/A   Clear
2:52 PM 57.9 °F - 30.0 °F 35% 30.29 in 10.0 mi SSE 10.4 mph - N/A   Clear
3:52 PM 55.9 °F - 30.9 °F 39% 30.29 in 10.0 mi SSE 10.4 mph - N/A   Clear
4:52 PM 51.1 °F - 32.0 °F 48% 30.30 in 10.0 mi SE 10.4 mph - N/A   Clear
5:52 PM 48.0 °F - 33.1 °F 56% 30.31 in 10.0 mi SE 10.4 mph - N/A   Clear
6:52 PM 48.9 °F - 33.1 °F 54% 30.31 in 10.0 mi SE 11.5 mph - N/A   Clear
7:52 PM 50.0 °F - 33.1 °F 52% 30.29 in 10.0 mi SSE 11.5 mph - N/A   Clear
8:52 PM 50.0 °F - 33.1 °F 52% 30.29 in 9.0 mi SSE 15.0 mph - N/A   Clear
9:52 PM 48.0 °F - 34.0 °F 58% 30.28 in 9.0 mi SSE 12.7 mph - N/A   Clear
10:52 PM 46.9 °F - 34.0 °F 61% 30.27 in 9.0 mi SSE 12.7 mph - N/A   Clear
11:52 PM 46.9 °F - 34.0 °F 61% 30.27 in 9.0 mi SSE 9.2 mph - N/A   Clear